Regional Weather Roundup
Issued by NWS Boston, MA

Home | Current Version | Previous Version | Text Only | Print | Product List | Glossary On
Versions: 1 2 3 4 5 6 7 8 9 10 11 12 13 14 15 16 17 18 19 20 21 22 23 24 25 26 27 28 29 30 31 32 33 34 35 36 37 38 39 40 41 42 43 44 45 46 47 48 49 50
000
ASUS41 KBOX 011110
RWRBOX

REGIONAL WEATHER ROUNDUP
NATIONAL WEATHER SERVICE TAUNTON MA
600 AM EST SUN FEB 01 2015

NOTE:  "FAIR" INDICATES FEW OR NO CLOUDS BELOW 12,000 FEET WITH NO
SIGNIFICANT WEATHER AND/OR OBSTRUCTIONS TO VISIBILITY.  THE FOLLOWING
OBSERVATION LOCATIONS DO NOT REPORT PRESENT WEATHER...PROVINCETOWN...
SMITHFIELD...BLOCK ISLAND...KEENE...AND OXFORD.

MAZALL-011200-
EASTERN MASSACHUSETTS

CITY           SKY/WX    TMP DP  RH WIND       PRES   REMARKS
BOSTON         PTCLDY    14   2  58 SW8       30.13R WCI   3
BEVERLY        PTCLDY     8  -5  55 W8        30.10R WCI  -4
LAWRENCE       PTCLDY     7  -5  57 S5        30.11R WCI  -2
BEDFORD        PTCLDY     6  -3  66 SW3       30.11R
BLUE HILL        N/A      8  -2  63 W12       30.06R WCI  -7
NORWOOD        PTCLDY    -2  -7  79 CALM      30.13S
MARSHFIELD     CLEAR     14   1  57 W8        30.14R WCI   3
PLYMOUTH       CLEAR     13   1  59 W7        30.13R WCI   3
TAUNTON        CLEAR     11   0  61 W3        30.13R
NEW BEDFORD    CLEAR     13   3  64 W8        30.13R WCI   2
$$

MAZALL-011200-
CAPE COD AND THE ISLANDS

CITY           SKY/WX    TMP DP  RH WIND       PRES   REMARKS
FALMOUTH       PTCLDY    16   3  57 NW14G21   30.11R WCI   1
HYANNIS        CLEAR     17   2  51 NW12G24   30.07R WCI   4
CHATHAM        CLEAR     20   9  62 NW9G20    30.08R WCI   9
PROVINCETOWN   CLEAR     19   9  63 NW25G35   30.09R WCI   2
NANTUCKET      CLEAR     22   8  55 NW22G31   30.09R WCI   6
MARTHAS VNYRD  CLEAR     19   6  57 NW15G25   30.12R WCI   5
$$

MAZALL-011200-
CENTRAL AND WESTERN MASSACHUSETTS

CITY           SKY/WX    TMP DP  RH WIND       PRES   REMARKS
WORCESTER      PTCLDY   N/A N/A N/A SW10      30.04S
FITCHBURG      MOCLDY     4  -4  69 NW3       30.11R
ORANGE         PTCLDY    -9 -14  78 CALM      30.09R
SPRINGFIELD    CLOUDY     3  -2  78 S2        30.12R
WESTFIELD      CLOUDY    17   7  64 SW13      30.12R WCI   4
NORTH ADAMS    CLOUDY    10   4  76 W5        30.08R WCI   2
PITTSFIELD     FLURRIES  15  10  80 SW7       30.03R WCI   5
$$

RIZALL-011200-
RHODE ISLAND

CITY           SKY/WX    TMP DP  RH WIND       PRES   REMARKS
PROVIDENCE     PTCLDY    13   4  67 W13       30.15R WCI  -2
NEWPORT        PTCLDY    17   8  67 W7        30.14R WCI   8
BLOCK ISLAND   CLEAR     23  12  63 W13G20    30.14R WCI  11
SMITHFIELD     PTCLDY     9   0  66 SW6       30.09S WCI  -1
WESTERLY       PTCLDY    12   4  70 W3        30.17S
$$

CTZALL-011200-
CONNECTICUT

CITY           SKY/WX    TMP DP  RH WIND       PRES   REMARKS
BRADLEY INTL   CLOUDY    16   6  65 SW7       30.14S WCI   6
HARTFORD       CLOUDY    14   5  67 S7        30.18R WCI   4
BRIDGEPORT     PTCLDY    11   4  73 CALM      30.19R
DANBURY        PTCLDY     0  -6  76 CALM      30.16R
GROTON         PTCLDY    14   6  70 W10       30.18R WCI   1
NEW HAVEN      PTCLDY     6  -1  73 CALM      30.18S
CHESTER        CLOUDY    16   7  67 SW7       30.15R WCI   6
MERIDEN        CLOUDY     3  -2  79 CALM      30.18S
WILLIMANTIC    CLOUDY     4  -2  76 NE3       30.16R
OXFORD         PTCLDY    10  -2  56 SW6       30.12R WCI   1
$$

MEZ002-015-021-024-NHZ003-005-008-011-012-014-VTZ005-008-011200-
NORTHERN NEW ENGLAND

CITY           SKY/WX    TMP DP  RH WIND       PRES   REMARKS
PORTLAND ME    PTCLDY     3  -8  60 SW5       30.02S WCI  -6
BANGOR ME      CLEAR      6  -3  66 NW8       29.92R WCI  -7
CONCORD NH     PTCLDY     9  -2  61 W5        30.06R WCI   1
MANCHESTER NH  MOCLDY     2  -5  72 S3        30.07R
NASHUA NH      MOCLDY     9  -3  58 VRB3      30.10R
PORTSMOUTH NH  PTCLDY    11  -1  59 W13       30.05S WCI  -5
JAFFREY NH     PTCLDY     6  -4  63 VRB3      30.02R
KEENE NH       PTCLDY    -6  -9  84 CALM      30.08R
BURLINGTON VT  FLURRIES   0  -6  76 CALM      30.15R
MT. WASHINGTON ICE FOG  -11 -11 100 NW79G86     N/A  VSB 0   WCI -53
$$

NYZ052-076-011200-
EASTERN NEW YORK

CITY           SKY/WX    TMP DP  RH WIND       PRES   REMARKS
ALBANY         FLURRIES  15   8  73 S5        30.14R WCI   8
NEW YORK CITY  MOCLDY    25  10  53 W12       30.22R WCI  14
$$

ANZALL-011200-
MARINE OBSERVATIONS

STATION/POSITION TIME  TEMP    WIND        PRES    VSBY  WAVE
                       AIR SEA DIR/SP/G                  HT/PER
                 (UTC) (F)     (DEG/KT/KT) (MB)    (MI)  (FT/S)
BOSTON BUOY      1050   19 40  270/ 19/ 23 1019.7R         3/ 4
BUZZARDS BAY     1000          310/ 23/ 25 1020.5R
NANTUCKET SOUND  NOT AVBL
MASS BAY-STELLWA 1004   20 41  280/ 19/ 25   N/A    1 7/8  3/ 4
ISLE OF SHOALS   1100   15     270/ 24/ 26 1017.0R
S OF BLOCK IS    1008      42                N/A           7/ 6
$$

......................KEY.........................
  SKY/WX - SKY CONDITION/PRESENT WEATHER
  TMP    - TEMPERATURE IN FAHRENHEIT
  DWPT   - DEWPOINT IN FAHRENHEIT
  RH     - RELATIVE HUMIDITY IN PERCENT
  WIND   - DIRECTION AND SPEED IN MPH
  PRES   - MEAN SEA LEVEL PRESSURE IN INCHES OF HG
  WCI    - WIND CHILL INDEX
  VSB    - VISIBILITY IN MILES
  HX     - HEAT INDEX
  TC     - TEMPERATURE IN CELSIUS
  VRB    - VARIABLE WIND DIRECTION
  N/A    - NOT AVAILABLE


USA.gov is the U.S. government's official web portal to all federal, state and local government web resources and services.